星链-2589 (STARLINK-2589 )

导读 | 星芒AI

STARLINK-2589 是 SpaceX Starlink 卫星互联网项目中的第 2589 颗卫星,属于“星链”计划的第二代或第三代卫星之一。该卫星用于提供全球范围内的高速互联网服务,尤其在偏远和网络基础设施薄弱的地区。它运行在近地轨道,配备先进通信设备,支持低延迟和高带宽的数据传输。作为 Starlink 卫星群的一部分,STARLINK-2589 有助于扩大覆盖范围,提升网络性能,并推动全球互联网接入的普及。

基本信息
目录编号:
48371
目录名称:
STARLINK-2589
国际标识:
2021-038U
轨道中心:
EARTH
卫星名称:
星链-2589
卫星全名:
星链-2589 (STARLINK-2589 )
卫星状态:
在轨 (已飞行1640 天)
发射日期:
2021-05-04 UTC
国别 :
美国 (US)
星等 :
--
轨道信息
数据来源 国际轨道数据 AOE轨道数据
星历时间 2025-10-30T09:23:48+0800
11小时前
查看轨道信息
2025-10-26T17:00:00+0800
4天前
查看轨道信息
半长轴 6925.241km 6925.314km
偏心率 0.0001303 0.0001505
轨道倾角 53.053° 53.051°
近地点辐角 91.783° 96.577°
升交点赤经 218.047° 234.582°
平近点角 268.331° 78.346°
近地点 546.203km 546.136km
远地点 548.009km 548.222km
周期 95.590分钟 95.591分钟
每日圈数 15.064352 15.064116
详细信息
固有亮度:
5
最大亮度:
2.5
卫星平台:
Starlink V1.0
覆盖范围:
全球
运营商:
太空探索技术公司
运营商所在国:
美国
制造商(研发单位):
太空探索技术公司
制造商所在国:
美国
使用方式:
暂无
卫星简介
星链(Starlink)计划是由太空探索技术公司(SpaceX)提出的一个巨型低轨卫星互联网星座项目,计划在2019年至2024年间在太空搭建由约1.2万颗卫星组成的“星链”网络,其中1584颗将部署在地球上空550千米处的近地轨道,并从2020年开始工作。该卫星仍在工作。
2D轨道图
3D轨道图
轨道高度分析图
轨道倾角分析图
轨道综合分析图
查看轨道综合分析图